• In Belarus
  • List of Countries
  • For 7 days
  • Water Temperature
  • Satellite Maps
  • Weather Map
  • Weather Widgets
  • user-avatar
    Login

    Hourly Weather Bansko

    Today, 20 March, Wednesday

    Time Temperature Precipitation Wind Pressure Humidity
    00:00 +10°C° 0 mm 2 mps 723 mmHg 81%
    01:00 +10°C° 0 mm 2 mps 723 mmHg 83%
    02:00 +9°C° 0 mm 2 mps 723 mmHg 85%
    03:00 +9°C° 0 mm 2 mps 723 mmHg 86%
    04:00 +9°C° 0 mm 2 mps 724 mmHg 87%
    05:00 +8°C° 0 mm 2 mps 724 mmHg 87%
    06:00 +9°C° 0 mm 2 mps 724 mmHg 84%
    07:00 +10°C° 0 mm 2 mps 725 mmHg 81%
    08:00 +10°C° 0 mm 2 mps 725 mmHg 78%
    09:00 +13°C° 0 mm 2 mps 726 mmHg 70%
    10:00 +15°C° 0 mm 2 mps 726 mmHg 62%
    11:00 +16°C° 0 mm 2 mps 726 mmHg 54%
    12:00 +17°C° 0 mm 2 mps 726 mmHg 51%
    13:00 +18°C° 0 mm 2 mps 726 mmHg 48%
    14:00 +18°C° 0 mm 3 mps 726 mmHg 45%
    15:00 +18°C° 0.1 mm 3 mps 726 mmHg 48%
    16:00 +17°C° 0.1 mm 3 mps 726 mmHg 50%
    17:00 +17°C° 0.1 mm 4 mps 726 mmHg 53%
    18:00 +14°C° 0 mm 3 mps 726 mmHg 60%
    19:00 +13°C° 0 mm 3 mps 726 mmHg 68%
    20:00 +12°C° 0 mm 2 mps 727 mmHg 75%
    21:00 +10°C° 0 mm 2 mps 727 mmHg 78%
    22:00 +10°C° 0 mm 2 mps 728 mmHg 81%
    23:00 +9°C° 0 mm 2 mps 728 mmHg 83%

    Tomorrow, 21 March, Thursday

    Time Temperature Precipitation Wind Pressure Humidity
    00:00 +9°C° 0 mm 2 mps 728 mmHg 85%
    01:00 +9°C° 0 mm 2 mps 729 mmHg 86%
    02:00 +8°C° 0 mm 2 mps 729 mmHg 87%
    03:00 +8°C° 0 mm 2 mps 729 mmHg 88%
    04:00 +8°C° 0 mm 2 mps 729 mmHg 89%
    05:00 +8°C° 0 mm 2 mps 729 mmHg 89%
    06:00 +8°C° 0 mm 2 mps 729 mmHg 86%
    07:00 +9°C° 0 mm 2 mps 730 mmHg 83%
    08:00 +9°C° 0 mm 2 mps 730 mmHg 80%
    09:00 +12°C° 0 mm 2 mps 730 mmHg 73%
    10:00 +13°C° 0 mm 2 mps 730 mmHg 66%
    11:00 +13°C° 0 mm 3 mps 730 mmHg 58%
    12:00 +14°C° 0 mm 3 mps 730 mmHg 57%
    13:00 +14°C° 0 mm 3 mps 730 mmHg 55%
    14:00 +16°C° 0 mm 3 mps 729 mmHg 53%
    15:00 +14°C° 0.1 mm 3 mps 729 mmHg 55%
    16:00 +14°C° 0.1 mm 3 mps 729 mmHg 58%
    17:00 +13°C° 0.1 mm 3 mps 729 mmHg 60%
    18:00 +12°C° 0 mm 3 mps 729 mmHg 65%
    19:00 +12°C° 0 mm 2 mps 729 mmHg 70%
    20:00 +10°C° 0 mm 2 mps 729 mmHg 76%
    21:00 +9°C° 0 mm 2 mps 730 mmHg 79%
    22:00 +9°C° 0 mm 1 mps 730 mmHg 82%
    23:00 +9°C° 0 mm 1 mps 730 mmHg 85%

    Day after tomorrow, 22 March, Friday

    Time Temperature Precipitation Wind Pressure Humidity
    00:00 +9°C° 0 mm 1 mps 730 mmHg 86%
    01:00 +8°C° 0 mm 1 mps 730 mmHg 87%
    02:00 +8°C° 0 mm 1 mps 730 mmHg 88%
    03:00 +8°C° 0 mm 1 mps 730 mmHg 89%
    04:00 +7°C° 0 mm 1 mps 730 mmHg 89%
    05:00 +7°C° 0 mm 1 mps 730 mmHg 90%
    06:00 +8°C° 0 mm 1 mps 730 mmHg 86%
    07:00 +8°C° 0 mm 1 mps 730 mmHg 82%
    08:00 +9°C° 0 mm 1 mps 730 mmHg 78%
    09:00 +11°C° 0 mm 1 mps 730 mmHg 68%
    10:00 +13°C° 0 mm 1 mps 730 mmHg 59%
    11:00 +15°C° 0 mm 1 mps 730 mmHg 50%
    12:00 +16°C° 0 mm 2 mps 730 mmHg 46%
    13:00 +17°C° 0 mm 2 mps 729 mmHg 43%
    14:00 +18°C° 0 mm 2 mps 729 mmHg 39%
    15:00 +17°C° 0 mm 2 mps 728 mmHg 40%
    16:00 +17°C° 0 mm 2 mps 728 mmHg 40%
    17:00 +17°C° 0 mm 2 mps 727 mmHg 41%
    18:00 +15°C° 0 mm 2 mps 727 mmHg 47%
    19:00 +13°C° 0 mm 2 mps 727 mmHg 53%
    20:00 +12°C° 0 mm 1 mps 727 mmHg 58%
    21:00 +11°C° 0 mm 1 mps 728 mmHg 60%
    22:00 +10°C° 0 mm 1 mps 728 mmHg 62%
    23:00 +10°C° 0 mm 1 mps 728 mmHg 64%

    23 March, Saturday

    Time Temperature Precipitation Wind Pressure Humidity
    00:00 +9°C° 0 mm 1 mps 728 mmHg 65%
    01:00 +9°C° 0 mm 1 mps 728 mmHg 66%
    02:00 +9°C° 0 mm 1 mps 728 mmHg 67%
    03:00 +8°C° 0 mm 1 mps 728 mmHg 68%
    04:00 +8°C° 0 mm 1 mps 728 mmHg 69%
    05:00 +8°C° 0 mm 1 mps 728 mmHg 70%
    06:00 +9°C° 0 mm 1 mps 728 mmHg 67%
    07:00 +10°C° 0 mm 1 mps 728 mmHg 65%
    08:00 +11°C° 0 mm 1 mps 728 mmHg 62%
    09:00 +13°C° 0 mm 1 mps 728 mmHg 55%
    10:00 +15°C° 0 mm 1 mps 728 mmHg 47%
    11:00 +18°C° 0 mm 1 mps 728 mmHg 40%
    12:00 +19°C° 0 mm 1 mps 727 mmHg 38%
    13:00 +20°C° 0 mm 1 mps 727 mmHg 36%
    14:00 +21°C° 0 mm 1 mps 727 mmHg 34%
    15:00 +19°C° 0 mm 2 mps 726 mmHg 34%
    16:00 +19°C° 0 mm 2 mps 726 mmHg 35%
    17:00 +19°C° 0 mm 2 mps 726 mmHg 36%
    18:00 +18°C° 0 mm 1 mps 726 mmHg 42%
    19:00 +15°C° 0 mm 1 mps 726 mmHg 48%
    20:00 +13°C° 0 mm 1 mps 726 mmHg 54%
    21:00 +12°C° 0 mm 1 mps 727 mmHg 56%
    22:00 +12°C° 0 mm 1 mps 727 mmHg 58%
    23:00 +11°C° 0 mm 1 mps 727 mmHg 61%

    24 March, Sunday

    Time Temperature Precipitation Wind Pressure Humidity
    00:00 +11°C° 0 mm 1 mps 727 mmHg 62%
    01:00 +10°C° 0 mm 1 mps 727 mmHg 64%
    02:00 +10°C° 0 mm 1 mps 727 mmHg 65%
    03:00 +10°C° 0 mm 1 mps 726 mmHg 66%
    04:00 +9°C° 0 mm 1 mps 726 mmHg 67%
    05:00 +9°C° 0 mm 1 mps 726 mmHg 68%
    06:00 +9°C° 0 mm 0 mps 726 mmHg 65%
    07:00 +10°C° 0 mm 0 mps 726 mmHg 61%
    08:00 +11°C° 0 mm 0 mps 727 mmHg 58%
    09:00 +13°C° 0 mm 0 mps 726 mmHg 51%
    10:00 +16°C° 0 mm 1 mps 726 mmHg 45%
    11:00 +19°C° 0 mm 1 mps 726 mmHg 39%
    12:00 +20°C° 0 mm 1 mps 726 mmHg 37%
    13:00 +21°C° 0 mm 1 mps 725 mmHg 35%
    14:00 +22°C° 0 mm 1 mps 725 mmHg 33%
    15:00 +21°C° 0 mm 1 mps 724 mmHg 33%
    16:00 +21°C° 0 mm 1 mps 724 mmHg 34%
    17:00 +20°C° 0 mm 1 mps 723 mmHg 35%
    18:00 +19°C° 0 mm 1 mps 723 mmHg 40%
    19:00 +15°C° 0 mm 0 mps 723 mmHg 44%
    20:00 +13°C° 0 mm 0 mps 723 mmHg 49%
    21:00 +13°C° 0 mm 0 mps 723 mmHg 51%
    22:00 +12°C° 0 mm 0 mps 723 mmHg 53%
    23:00 +11°C° 0 mm 0 mps 723 mmHg 55%

    25 March, Monday

    Time Temperature Precipitation Wind Pressure Humidity
    00:00 +11°C° 0 mm 0 mps 723 mmHg 56%
    01:00 +10°C° 0 mm 0 mps 723 mmHg 58%
    02:00 +10°C° 0 mm 0 mps 722 mmHg 59%
    03:00 +10°C° 0 mm 0 mps 722 mmHg 60%
    04:00 +9°C° 0 mm 0 mps 722 mmHg 61%
    05:00 +9°C° 0 mm 0 mps 722 mmHg 61%
    06:00 +10°C° 0 mm 0 mps 722 mmHg 58%
    07:00 +11°C° 0 mm 0 mps 722 mmHg 55%
    08:00 +12°C° 0 mm 0 mps 722 mmHg 52%
    09:00 +14°C° 0 mm 0 mps 722 mmHg 47%
    10:00 +18°C° 0 mm 1 mps 722 mmHg 42%
    11:00 +19°C° 0 mm 1 mps 722 mmHg 37%
    12:00 +20°C° 0 mm 1 mps 721 mmHg 36%
    13:00 +20°C° 0 mm 1 mps 721 mmHg 34%
    14:00 +20°C° 0 mm 2 mps 720 mmHg 33%
    15:00 +21°C° 0 mm 1 mps 719 mmHg 34%
    16:00 +20°C° 0 mm 1 mps 719 mmHg 34%
    17:00 +20°C° 0 mm 1 mps 718 mmHg 35%
    18:00 +18°C° 0 mm 1 mps 718 mmHg 40%
    19:00 +16°C° 0 mm 1 mps 718 mmHg 44%
    20:00 +13°C° 0 mm 0 mps 718 mmHg 48%
    21:00 +12°C° 0 mm 0 mps 718 mmHg 50%
    22:00 +12°C° 0 mm 0 mps 718 mmHg 52%
    23:00 +11°C° 0 mm 0 mps 718 mmHg 53%
    Show more